Bangor, ME

11:03 AM EDT on April 28, 2017 (GMT -0400)
Bangor International

Weather History for KBGR - August, 2011

Change the Weather History Date:

Friday, August 5, 2011

  Actual Average Record
Temperature  
Mean Temperature 68 °F 69 °F  
Max Temperature 79 °F 80 °F 95 °F (1944)
Min Temperature 57 °F 58 °F 46 °F (1970)
Degree Days  
Heating Degree Days 0 1  
Month to date heating degree days 1 5  
Since 1 June heating degree days 119 135  
Since 1 July heating degree days 5 28  
Cooling Degree Days 3 4  
Month to date cooling degree days 11 20  
Year to date cooling degree days 233 210  
Since 1 June cooling degree days 225 204  
Growing Degree Days 18 (Base 50)    
Moisture  
Dew Point 58 °F    
Average Humidity 71    
Maximum Humidity 97    
Minimum Humidity 45    
Precipitation  
Precipitation 0.00 in 0.11 in 1.95 in (1969)
Month to date precipitation 1.80 0.55  
Year to date precipitation 23.81 23.82  
Snow  
Snow 0.00 in 0.00 in 0.00 in (2002)
Month to date snowfall 0.0 0.0  
Since 1 June snowfall 0.0 0.0  
Since 1 July snowfall 0.0 0.0  
Snow Depth 0.00 in    
Sea Level Pressure  
Sea Level Pressure 30.08 in    
Wind  
Wind Speed 3 mph (NNE)    
Max Wind Speed 12 mph    
Max Gust Speed 17 mph    
Visibility 10 miles    
Events      
T = Trace of Precipitation, MM = Missing Value Source: NWS Daily Summary

Daily Weather History Graph

Daily Weather History Graph

Search for Another Location

Airport or City:

Trip Planner

Search our weather history database for the weather conditions in past years. The results will help you decide how hot, cold, wet, or windy it might be!

Date:

Astronomy

Aug. 05, 2011 Rise Set
Actual Time 5:25 AM EDT 7:56 PM EDT
Civil Twilight 4:52 AM EDT 8:29 PM EDT
Nautical Twilight 4:10 AM EDT 9:10 PM EDT
Astronomical Twilight 3:23 AM EDT 9:57 PM EDT
Moon 12:44 PM EDT (8/5) 10:44 PM EDT (8/5)
Length of Visible Light 15h 37m
Length of Day
14h 31m
Waxing Crescent, 41% of the Moon is Illuminated
Aug 5
Waxing Crescent
Aug 6
First Quarter
Aug 13
Full
Aug 21
Last Quarter
Aug 28
New

Hourly Weather History & Observations

Time (EDT) Temp. Dew Point Humidity Pressure Visibility Wind Dir Wind Speed Gust Speed Precip Events Conditions
12:53 AM 60.1 °F 59.0 °F 96% 30.06 in 10.0 mi Calm Calm - N/A   Scattered Clouds
1:53 AM 59.0 °F 57.9 °F 96% 30.06 in 10.0 mi Calm Calm - N/A   Scattered Clouds
2:53 AM 60.1 °F 59.0 °F 96% 30.06 in 10.0 mi NNW 3.5 mph - N/A   Overcast
3:53 AM 62.1 °F 60.1 °F 93% 30.07 in 10.0 mi NE 4.6 mph - N/A   Overcast
4:03 AM 62.6 °F 60.8 °F 94% 30.08 in 10.0 mi NNE 3.5 mph - N/A   Overcast
4:13 AM 62.6 °F 60.8 °F 94% 30.08 in 10.0 mi North 3.5 mph - N/A   Overcast
4:53 AM 62.1 °F 61.0 °F 96% 30.09 in 10.0 mi Calm Calm - N/A   Overcast
5:00 AM 62.6 °F 60.8 °F 94% 30.09 in 10.0 mi Calm Calm - N/A   Overcast
5:50 AM 62.6 °F 57.2 °F 82% 30.10 in 10.0 mi NNE 5.8 mph - N/A   Overcast
5:53 AM 62.1 °F 57.9 °F 86% 30.10 in 10.0 mi NE 4.6 mph - N/A   Overcast
6:25 AM 62.6 °F 55.4 °F 77% 30.11 in 10.0 mi NE 3.5 mph - N/A   Mostly Cloudy
6:53 AM 61.0 °F 55.9 °F 83% 30.11 in 10.0 mi ENE 5.8 mph - N/A   Overcast
7:22 AM 62.6 °F 55.4 °F 77% 30.12 in 10.0 mi East 3.5 mph - N/A   Mostly Cloudy
7:53 AM 62.6 °F 55.4 °F 77% 30.13 in 10.0 mi ENE 4.6 mph - N/A   Mostly Cloudy
8:27 AM 66.2 °F 55.4 °F 68% 30.14 in 10.0 mi Calm Calm - N/A   Mostly Cloudy
8:53 AM 66.9 °F 55.0 °F 66% 30.13 in 10.0 mi Variable 4.6 mph - N/A   Mostly Cloudy
9:53 AM 68.0 °F 57.0 °F 68% 30.12 in 10.0 mi NW 3.5 mph - N/A   Scattered Clouds
10:53 AM 70.0 °F 57.9 °F 65% 30.11 in 10.0 mi NNW 4.6 mph - N/A   Scattered Clouds
11:53 AM 73.9 °F 59.0 °F 59% 30.09 in 10.0 mi North 8.1 mph - N/A   Scattered Clouds
12:53 PM 73.9 °F 59.0 °F 59% 30.09 in 10.0 mi NNW 8.1 mph - N/A   Scattered Clouds
1:53 PM 77.0 °F 59.0 °F 54% 30.08 in 10.0 mi North 3.5 mph - N/A   Scattered Clouds
2:53 PM 75.9 °F 55.9 °F 50% 30.06 in 10.0 mi Calm Calm - N/A   Scattered Clouds
3:53 PM 78.1 °F 57.0 °F 48% 30.07 in 10.0 mi Variable 3.5 mph - N/A   Mostly Cloudy
4:53 PM 78.1 °F 55.9 °F 46% 30.05 in 10.0 mi Calm Calm - N/A   Partly Cloudy
5:53 PM 78.1 °F 55.9 °F 46% 30.04 in 10.0 mi Calm Calm - N/A   Scattered Clouds
6:53 PM 73.9 °F 61.0 °F 64% 30.03 in 10.0 mi SSW 9.2 mph - N/A   Scattered Clouds
7:53 PM 68.0 °F 60.1 °F 76% 30.05 in 10.0 mi South 5.8 mph - N/A   Partly Cloudy
8:53 PM 64.9 °F 57.9 °F 78% 30.05 in 10.0 mi South 5.8 mph - N/A   Clear
9:53 PM 63.0 °F 57.9 °F 84% 30.06 in 10.0 mi South 4.6 mph - N/A   Clear
10:53 PM 62.1 °F 59.0 °F 90% 30.06 in 10.0 mi South 3.5 mph - N/A   Clear
11:53 PM 61.0 °F 57.9 °F 90% 30.05 in 10.0 mi South 3.5 mph - N/A   Clear